TimeEST,TemperatureF,Dew PointF,Humidity,Sea Level PressureIn,VisibilityMPH,Wind Direction,Wind SpeedMPH,Gust SpeedMPH,PrecipitationIn,Events,Conditions,WindDirDegrees,DateUTC
12:12 AM,28.4,12.2,51,30.15,10.0,West,11.5,-,N/A,,Clear,260,2013-02-21 05:12:00
12:30 AM,28.4,12.2,51,30.15,10.0,West,19.6,-,N/A,,Clear,270,2013-02-21 05:30:00
12:51 AM,28.4,12.2,51,30.14,10.0,West,16.1,-,N/A,,Clear,270,2013-02-21 05:51:00
1:12 AM,26.6,12.2,55,30.14,10.0,WNW,12.7,18.4,N/A,,Clear,290,2013-02-21 06:12:00
1:30 AM,26.6,12.2,55,30.14,10.0,West,10.4,-,N/A,,Clear,270,2013-02-21 06:30:00
1:51 AM,26.6,12.2,55,30.14,10.0,West,8.1,-,N/A,,Clear,280,2013-02-21 06:51:00
2:12 AM,26.6,12.2,55,30.14,10.0,West,6.9,-,N/A,,Clear,270,2013-02-21 07:12:00
2:30 AM,24.8,12.2,59,30.13,10.0,WNW,4.6,-,N/A,,Clear,290,2013-02-21 07:30:00
2:51 AM,23.0,12.2,63,30.13,10.0,West,6.9,-,N/A,,Clear,280,2013-02-21 07:51:00
3:12 AM,24.8,14.0,64,30.13,10.0,West,6.9,-,N/A,,Clear,270,2013-02-21 08:12:00
3:30 AM,24.8,14.0,64,30.13,10.0,West,3.5,-,N/A,,Clear,260,2013-02-21 08:30:00
4:12 AM,26.6,12.2,55,30.14,10.0,West,11.5,-,N/A,,Clear,270,2013-02-21 09:12:00
4:30 AM,26.6,12.2,55,30.14,10.0,West,9.2,-,N/A,,Clear,270,2013-02-21 09:30:00
4:51 AM,26.6,14.0,59,30.15,10.0,West,11.5,-,N/A,,Clear,270,2013-02-21 09:51:00
5:12 AM,26.6,12.2,55,30.16,10.0,West,8.1,-,N/A,,Clear,270,2013-02-21 10:12:00
5:30 AM,24.8,14.0,64,30.16,10.0,West,9.2,-,N/A,,Clear,280,2013-02-21 10:30:00
5:50 AM,24.8,12.2,59,30.16,10.0,West,10.4,-,N/A,,Scattered Clouds,280,2013-02-21 10:50:00
6:45 AM,24.8,12.2,59,30.17,10.0,WNW,11.5,-,N/A,,Partly Cloudy,290,2013-02-21 11:45:00
7:45 AM,26.6,12.2,55,30.18,10.0,WNW,13.8,19.6,N/A,,Partly Cloudy,290,2013-02-21 12:45:00
8:45 AM,28.4,12.2,51,30.19,10.0,West,17.3,29.9,N/A,,Scattered Clouds,280,2013-02-21 13:45:00
9:45 AM,30.2,12.2,47,30.20,10.0,WNW,18.4,-,N/A,,Scattered Clouds,300,2013-02-21 14:45:00
10:45 AM,32.0,14.0,48,30.21,10.0,WNW,19.6,27.6,N/A,,Scattered Clouds,300,2013-02-21 15:45:00
11:45 AM,33.8,15.8,48,30.20,10.0,West,13.8,23.0,N/A,,Scattered Clouds,280,2013-02-21 16:45:00
12:45 PM,37.4,15.8,41,30.18,10.0,West,19.6,26.5,N/A,,Scattered Clouds,270,2013-02-21 17:45:00
1:45 PM,37.4,15.8,41,30.17,10.0,West,18.4,28.8,N/A,,Scattered Clouds,270,2013-02-21 18:45:00
2:53 PM,39.2,17.6,42,30.17,10.0,WNW,18.4,27.6,N/A,,Scattered Clouds,300,2013-02-21 19:53:00
3:45 PM,39.2,15.8,39,30.18,10.0,WNW,23.0,29.9,N/A,,Partly Cloudy,290,2013-02-21 20:45:00
4:45 PM,37.4,15.8,41,30.18,10.0,WNW,16.1,23.0,N/A,,Clear,300,2013-02-21 21:45:00
5:50 PM,35.6,15.8,44,30.24,10.0,West,9.2,17.3,N/A,,Clear,280,2013-02-21 22:50:00
6:50 PM,32.0,15.8,51,30.27,10.0,WNW,9.2,17.3,N/A,,Clear,290,2013-02-21 23:50:00
7:50 PM,32.0,15.8,51,30.30,10.0,WNW,9.2,17.3,N/A,,Clear,300,2013-02-22 00:50:00
9:45 PM,32.0,17.6,55,30.33,10.0,West,4.6,-,N/A,,Clear,270,2013-02-22 02:45:00
10:12 PM,32.0,17.6,55,30.33,10.0,Calm,Calm,-,N/A,,Clear,0,2013-02-22 03:12:00
10:33 PM,30.2,17.6,60,30.32,10.0,WNW,5.8,-,N/A,,Clear,300,2013-02-22 03:33:00
10:54 PM,28.4,17.6,64,30.33,10.0,WSW,5.8,-,N/A,,Clear,250,2013-02-22 03:54:00
11:12 PM,30.2,19.4,64,30.33,10.0,West,6.9,-,N/A,,Clear,270,2013-02-22 04:12:00
11:33 PM,30.2,17.6,60,30.35,10.0,West,4.6,-,N/A,,Clear,270,2013-02-22 04:33:00
11:54 PM,30.2,17.6,60,30.34,10.0,WNW,5.8,-,N/A,,Clear,290,2013-02-22 04:54:00